Simultaneous Nadir Overpasses (SNOs) Predictions

Prediction of SNOs between GOES-14 and NOAA-20 Satellite Orbit:

Table of predicted SNOs for the next 14.0 days since TLE Epoch: 4/8/2023
Index Date Time (GOES-14) GOES-14 Lat,Lon NOAA-20 Lat,Lon Distance(km) Time Diff (sec)
1 04/09/2023 08:46:11 0.17,-108.11 0.53,-109.76 188.07 80
2 04/10/2023 08:24:47 0.17,-108.11 -0.50,-105.23 328.31 80
3 04/11/2023 20:46:44 -0.17,-108.13 -0.70,-110.54 273.75 80
4 04/12/2023 20:30:40 -0.17,-108.14 0.28,-106.00 243.38 80
5 04/14/2023 08:52:29 0.17,-108.14 0.88,-111.27 357.65 80
6 04/15/2023 08:31:06 0.18,-108.14 -0.16,-106.75 158.70 80
7 04/16/2023 20:53:03 -0.18,-108.15 -1.03,-112.05 444.77 80
8 04/17/2023 20:36:59 -0.18,-108.16 -0.04,-107.52 72.69 80
9 04/20/2023 08:40:03 0.18,-108.18 0.21,-108.26 9.76 80
